Nadi, Fiji

5:26 AM FJT on February 20, 2017 (GMT +1200)
Nadi

Weather History for 91680 - January, 2014

Change the Weather History Date:

Wednesday, January 1, 2014

  Actual Average Record
Temperature  
Mean Temperature 80 °F -  
Max Temperature 88 °F 86 °F - ()
Min Temperature 73 °F 73 °F - ()
Cooling Degree Days 16    
Growing Degree Days 30 (Base 50)    
Moisture  
Dew Point 75 °F    
Average Humidity 87    
Maximum Humidity 100    
Minimum Humidity 58    
Precipitation  
Precipitation 1.30 in 0.39 in - ()
Sea Level Pressure  
Sea Level Pressure 29.67 in    
Wind  
Wind Speed 6 mph ()    
Max Wind Speed 15 mph    
Max Gust Speed -    
Visibility 6.4 miles    
Events Rain , Thunderstorm    
T = Trace of Precipitation, MM = Missing Value Source: Averaged Metar Reports

Daily Weather History Graph

Daily Weather History Graph

Search for Another Location

Airport or City:

Trip Planner

Search our weather history database for the weather conditions in past years. The results will help you decide how hot, cold, wet, or windy it might be!

Date:

Astronomy

Jan. 01, 2014 Rise Set
Actual Time 6:38 AM FJST 7:48 PM FJST
Civil Twilight 6:14 AM FJST 8:12 PM FJST
Nautical Twilight 5:45 AM FJST 8:41 PM FJST
Astronomical Twilight 5:16 AM FJST 9:10 PM FJST
Moon 6:01 AM FJST (1/1) 7:24 PM FJST (1/1)
Length of Visible Light 13h 58m
Length of Day
13h 10m
Waning Crescent, 0% of the Moon is Illuminated
Jan 1
Waning Crescent
Jan 2
New
Jan 8
First Quarter
Jan 16
Full
Jan 24
Last Quarter

Hourly Weather History & Observations

Time (FJST) Temp. Heat Index Dew Point Humidity Pressure Visibility Wind Dir Wind Speed Gust Speed Precip Events Conditions
12:00 AM 77.0 °F - 75.2 °F 94% 29.74 in 6.2 mi East 3.5 mph - N/A   Partly Cloudy
1:00 AM 77 °F - 74 °F 89% 29.73 in 12 mi ESE 4.6 mph - -   Partly Cloudy
1:00 AM 77.0 °F - 75.2 °F 94% 29.71 in 6.2 mi ESE 4.6 mph - N/A   Partly Cloudy
2:00 AM 77.0 °F - 75.2 °F 94% 29.68 in 6.2 mi East 3.5 mph - N/A   Partly Cloudy
3:00 AM 77.0 °F - 73.4 °F 89% 29.65 in 6.2 mi East 4.6 mph - N/A   Partly Cloudy
4:00 AM 75 °F - 74 °F 94% 29.65 in 12 mi SE 6.9 mph - -   Partly Cloudy
4:00 AM 75.2 °F - 73.4 °F 94% 29.65 in 6.2 mi SE 6.9 mph - N/A   Partly Cloudy
5:00 AM 75.2 °F - 73.4 °F 94% 29.65 in 6.2 mi East 3.5 mph - N/A   Partly Cloudy
6:00 AM 75.2 °F - 73.4 °F 94% 29.65 in 6.2 mi ESE 3.5 mph - N/A   Partly Cloudy
7:00 AM 74 °F - 72 °F 94% 29.67 in 31 mi ENE 4.6 mph - -   Partly Cloudy
7:00 AM 73.4 °F - 73.4 °F 100% 29.65 in 6.2 mi ENE 4.6 mph - N/A   Partly Cloudy
8:00 AM 78.8 °F - 73.4 °F 83% 29.68 in 6.2 mi ESE 5.8 mph - N/A   Partly Cloudy
9:00 AM 84.2 °F 90.9 °F 73.4 °F 70% 29.68 in 6.2 mi East 5.8 mph - N/A   Partly Cloudy
10:00 AM 87 °F - 74 °F 58% 29.70 in 31 mi SE 5.8 mph - -   Partly Cloudy
10:00 AM 87.8 °F 95.6 °F 73.4 °F 62% 29.68 in 6.2 mi SE 5.8 mph - N/A   Partly Cloudy
11:00 AM 86.0 °F 95.1 °F 75.2 °F 70% 29.68 in 6.2 mi WNW 8.1 mph - N/A   Partly Cloudy
12:00 PM 86.0 °F 95.1 °F 75.2 °F 70% 29.65 in 6.2 mi WNW 11.5 mph - N/A   Scattered Clouds
1:00 PM 88 °F - 77 °F 62% 29.67 in 31 mi WNW 13.8 mph - -   Partly Cloudy
1:00 PM 87.8 °F 99.7 °F 77.0 °F 70% 29.65 in 31.1 mi WNW 13.8 mph - N/A   Scattered Clouds
2:00 PM 87.8 °F 99.7 °F 77.0 °F 70% 29.65 in 6.2 mi West 15.0 mph - N/A   Scattered Clouds
3:00 PM 87.8 °F 99.7 °F 77.0 °F 70% 29.62 in 6.2 mi WNW 13.8 mph - N/A   Scattered Clouds
4:00 PM 78 °F - 77 °F 94% 29.65 in 2 mi ENE 9.2 mph - - Rain Heavy Rain Showers
4:00 PM 78.8 °F - 77.0 °F 94% 29.65 in 5.0 mi ENE 9.2 mph - N/A Rain Rain Showers
4:05 PM 78.8 °F - 77.0 °F 94% 29.65 in 5.0 mi ENE 9.2 mph - N/A Rain , Thunderstorm Thunderstorms and Rain
4:22 PM 78.8 °F - 77.0 °F 94% 29.65 in 1.9 mi West 10.4 mph - N/A Rain , Thunderstorm Thunderstorms and Rain
5:00 PM 73.4 °F - 71.6 °F 94% 29.65 in 6.2 mi East 6.9 mph - N/A Rain , Thunderstorm Thunderstorms and Rain
6:00 PM 77.0 °F - 73.4 °F 89% 29.65 in 6.2 mi SSE 5.8 mph - N/A Rain Light Rain
7:00 PM 76 °F - 75 °F 97% 29.67 in 31 mi ENE 4.6 mph - - Rain Light Rain
7:00 PM 75.2 °F - 75.2 °F 100% 29.65 in 6.2 mi ENE 4.6 mph - N/A   Scattered Clouds
8:00 PM 77.0 °F - 77.0 °F 100% 29.68 in 6.2 mi ENE 2.3 mph - N/A   Scattered Clouds
9:00 PM 75.2 °F - 75.2 °F 100% 29.68 in 6.2 mi East 5.8 mph - N/A   Scattered Clouds
10:00 PM 76 °F - 75 °F 97% 29.72 in 12 mi East 4.6 mph - -   Partly Cloudy
10:00 PM 75.2 °F - 75.2 °F 100% 29.71 in 6.2 mi East 4.6 mph - N/A   Mostly Cloudy
11:00 PM 75.2 °F - 75.2 °F 100% 29.71 in 6.2 mi SE 4.6 mph - N/A   Mostly Cloudy